Regional Weather Roundup
Issued by NWS Charleston, SC

Current Version | Previous Version | Graphics & Text | Print | Product List | Glossary On
Versions: 1 2 3 4 5 6 7 8 9 10 11 12 13 14 15 16 17 18 19 20 21 22 23 24 25 26 27 28 29 30 31 32 33 34 35 36 37 38 39 40 41 42 43 44 45 46 47 48 49 50
000
ASUS42 KCHS 300112
RWRCHS

REGIONAL WEATHER ROUNDUP
NATIONAL WEATHER SERVICE CHARLESTON SC
900 PM EDT FRI APR 29 2016

NOTE: "FAIR" INDICATES FEW OR NO CLOUDS BELOW 12,000 FEET WITH NO
SIGNIFICANT WEATHER AND/OR OBSTRUCTIONS TO VISIBILITY.

NOT ALL STATIONS ARE QUALITY CONTROLLED. USE DATA WITH CAUTION...
ESPECIALLY DEWPOINT OBSERVATIONS.

SCZ027-030-031-034>040-042>050-300200-
...SOUTHEAST SOUTH CAROLINA...

CITY           SKY/WX    TMP DP  RH WIND       PRES   REMARKS
N CHARLESTON   PTCLDY    71  67  87 SE8       29.97R
WATERFRONT PRK   N/A     72  70  93 SE7       29.95R
MOUNT PLEASANT FAIR      70  68  94 CALM      29.98R FOG
JOHNS ISLAND   FAIR      70  70 100 SE5       29.98R FOG
PINOPOLIS        N/A     75  66  73 VRB3      29.87R
MONCKS CORNER  FAIR      70  63  78 S3        29.97R
SUMMERVILLE    FAIR      73  64  73 CALM      29.98R
BEAUFORT MCAS  CLEAR     73  68  84 SE6       29.98R
BEAUFORT ARPT  FAIR      72  66  83 E3        29.97R
HILTON HEAD IS CLEAR     73  70  88 CALM      29.98R
WALTERBORO     CLEAR     75  63  64 S5        29.98R
ALLENDALE      FAIR      79  59  50 SE6       29.95R

...SOUTHERN MIDLANDS AND PEE DEE...

CITY           SKY/WX    TMP DP  RH WIND       PRES   REMARKS
GEORGETOWN     FAIR      68  64  88 CALM      29.98S
KINGSTREE      FAIR      73  64  73 E10       29.97R
ORANGEBURG     CLEAR     77  63  61 SE5       29.96R
BARNWELL       FAIR      77  66  69 CALM      29.96R
AIKEN          FAIR      73  55  53 N3        30.00R
MANNING        NOT AVBL
COLUMBIA       PTCLDY    81  54  39 CALM      29.94R
SUMTER         CLEAR     78  64  61 S2        29.94R
FLORENCE       PTCLDY    76  65  68 S9        29.96R
MYRTLE BEACH   PTCLDY    70  61  73 S7        29.99
N MYRTLE BEACH CLEAR     69  64  84 S5        29.97R

$$

GAZ063-065-086>088-099>101-113>116-118-119-134>141-150-300200-
...SOUTHEAST GEORGIA...

CITY           SKY/WX    TMP DP  RH WIND       PRES   REMARKS
SAVANNAH ARPT  PTCLDY    77  59  53 S5        29.97R
HUNTER AAF     PTCLDY    75  68  78 CALM      29.94R
FORT STEWART   CLEAR     76  61  59 CALM      29.94R
STATESBORO     CLEAR     82  66  59 SE5       29.96R
SYLVANIA       CLOUDY    79  65  63 CALM      29.97R
CLAXTON        FAIR      78  67  68 CALM      29.95R

...CSRA...CENTRAL AND FAR SOUTHEAST GEORGIA...

CITY           SKY/WX    TMP DP  RH WIND       PRES   REMARKS
THOMSON        PTCLDY    74  69  83 CALM      30.00S
AUGUSTA-BUSH   PTCLDY    72  65  78 CALM      29.94R
AUGUSTA-DANIEL CLOUDY    83  55  38 N5        29.96R
SWAINSBORO     FAIR      73  64  73 CALM      29.96R
VIDALIA        CLEAR     79  59  50 CALM      29.95S
EASTMAN        FAIR      73  66  77 CALM      29.97S
HAZLEHURST     FAIR      76  62  59 CALM      29.94R
ALMA           CLEAR     73  68  84 CALM      29.94R
WAYCROSS       CLEAR     77  68  74 CALM      29.94R
JESUP          FAIR      79  68  69 CALM      29.95R
BAXLEY         FAIR      77  64  65 CALM      29.94R
BRUNSWICK      CLEAR     81  72  74 SE5       29.96R
SAINT SIMONS   CLEAR     75  72  90 SE7       29.95R

$$

SCZ027-028-034-036>038-045-046-048>050-GAZ119-141-300200-
...LAKE AND SUPPLEMENTAL COASTAL OBSERVATIONS...

STATION/POSITION TIME  TEMP    WIND        PRES    WAVE   SWELL
                       AIR SEA DIR/SP/G            HT/PER HT/PER/DIR
                 (UTC) (F)     (DEG/KT/KT) (MB)    (FT/S) (FT/S/D)
WINYAH BAY       2345   71     130/  6     1014.0
LAKE MURRAY      0000   79        CALM     1013.2
ACE BASIN NERRS  NOT AVBL
FORT PULASKI     0000      73              1014.3R
SAPELO ISLAND    0000   77     130/  3     1014.0R

$$

ANZ835-935-AMZ111-154-330-350-352-354-370-450-454-472-300200-
...C-MAN AND BUOY OBSERVATIONS...

STATION/POSITION TIME  TEMP    WIND        PRES    WAVE   SWELL
                       AIR SEA DIR/SP/G            HT/PER HT/PER/DIR
                 (UTC) (F)     (DEG/KT/KT) (MB)    (FT/S) (FT/S/D)
BUOY 41004       2350   73 72  100/  8/ 10 1014.0    2/10   2/10
BUOY 41008       NOT AVBL
FOLLY BEACH CMAN 0000   71     130/  9/ 10 1014.7R
CAPERS NEARSHORE 0008   71 71  120/  8/ 10 1014.3R
FRIPP NEARSHORE  0008   73 74  120/  8/ 12 1013.6R


STATION/POSITION TIME  TEMP    WIND        PRES    WAVE   SWELL
                       AIR SEA DIR/SP/G            HT/PER HT/PER/DIR
                 (UTC) (F)     (DEG/KT/KT) (MB)    (FT/S) (FT/S/D)
5E ST. MARYS GA  0021      74                N/A     1/11
FRYING PAN BUOY  0000   69 70   70/  8/ 10 1014.5R
BUOY 41025       2350   61 74   20/ 19/ 23 1014.8    4/ 5   2/ 50/ 9
CAPE LOOKOUT NC  0000   67     350/ 12/ 13 1014.9R
BUOY 41002       2350   72 71  250/  8/ 10 1013.9    3/ 6   3/250/ 6
BUOY 41010       0020   77 77  200/  2/  4 1015.0R
ST AUGUSTINE FL  0000   73 74  160/  8/  8 1015.0R


$$




USA.gov is the U.S. government's official web portal to all federal, state and local government web resources and services.